Location: Degersen
(52.2871°N, 9.5716°E)
Time: 00:45:15
(UTC+00:00)

Meteor 2-5 Rocket - Pass Details

Date: 20 January 2026
Orbit: 833 x 910 km, 81.2° (Epoch: 17 February)

Event Time Altitude Azimuth Distance (km) Brightness Sun altitude
Rises 05:36:30 0° 345° (NNW) 3,510 6.6 -15.2°
Reaches altitude 10° 05:38:56 10° 345° (NNW) 2,576 5.9 -14.9°
Maximum altitude 05:44:49 77° 261° (W) 932 3.8 -14.0°
Drops below altitude 10° 05:50:44 10° 176° (S) 2,588 6.5 -13.1°
Sets 05:53:11 0° 175° (S) 3,528 7.2 -12.7°
